FDX014 OPKC-OPLA

Flight info

Callsign FDX014
Flight time 1h 26m
Altitude 39000
Route BADUL J112 MIMAL
Aircraft B77L/H-SDE1E2E3FGHIJ2J3J4J5M1RWXY/LB1D1

Departure

Time 2026-04-26 18:24
Airport Jinnah International Airport (OPKC)

Arrival

Time 2026-04-26 19:50
Airport Allama Iqbal International Airport (OPLA)
Time Latitude Longitude Altitude Speed Heading
2026-04-26 18:02 24.90175 67.15929 105 ft 0 kts 164°
2026-04-26 18:14 24.90178 67.15928 106 ft 2 kts 164°
2026-04-26 18:14 24.90193 67.15922 104 ft 2 kts 163°
2026-04-26 18:14 24.90209 67.15917 104 ft 2 kts 161°
2026-04-26 18:15 24.90225 67.15911 104 ft 2 kts 158°
2026-04-26 18:15 24.90240 67.15903 104 ft 2 kts 153°
2026-04-26 18:15 24.90254 67.15894 106 ft 2 kts 141°
2026-04-26 18:15 24.90266 67.15881 104 ft 2 kts 107°
2026-04-26 18:16 24.90267 67.15866 103 ft 1 kts 78°
2026-04-26 18:16 24.90266 67.15864 103 ft 0 kts 77°
2026-04-26 18:18 24.90267 67.15868 103 ft 3 kts 77°
2026-04-26 18:18 24.90277 67.15912 105 ft 5 kts 74°
2026-04-26 18:18 24.90291 67.15966 107 ft 10 kts 74°
2026-04-26 18:19 24.90313 67.16053 107 ft 14 kts 75°
2026-04-26 18:19 24.90344 67.16172 108 ft 18 kts 74°
2026-04-26 18:19 24.90381 67.16321 109 ft 22 kts 74°
2026-04-26 18:19 24.90421 67.16477 106 ft 18 kts 74°
2026-04-26 18:20 24.90458 67.16626 107 ft 22 kts 75°
2026-04-26 18:20 24.90480 67.16713 107 ft 10 kts 74°
2026-04-26 18:20 24.90503 67.16804 107 ft 14 kts 74°
2026-04-26 18:20 24.90513 67.16842 108 ft 16 kts 74°
2026-04-26 18:21 24.90573 67.17076 106 ft 22 kts 74°
2026-04-26 18:21 24.90618 67.17251 107 ft 25 kts 74°
2026-04-26 18:21 24.90652 67.17368 108 ft 17 kts 64°
2026-04-26 18:21 24.90726 67.17448 107 ft 13 kts 32°
2026-04-26 18:22 24.90745 67.17460 108 ft 0 kts 31°
2026-04-26 18:22 24.90754 67.17466 108 ft 3 kts 31°
2026-04-26 18:22 24.90787 67.17485 109 ft 8 kts 21°
2026-04-26 18:23 24.90841 67.17467 110 ft 10 kts 314°
2026-04-26 18:23 24.90847 67.17379 110 ft 14 kts 258°
2026-04-26 18:23 24.90754 67.17006 109 ft 108 kts 254°
2026-04-26 18:23 24.90445 67.15801 169 ft 207 kts 253°
2026-04-26 18:24 24.90033 67.14267 1421 ft 191 kts 258°
2026-04-26 18:24 24.90095 67.12865 2895 ft 190 kts 290°
2026-04-26 18:24 24.90990 67.11661 3318 ft 228 kts 326°
2026-04-26 18:24 24.92569 67.11230 3990 ft 251 kts
2026-04-26 18:25 24.94246 67.11849 4903 ft 263 kts 35°
2026-04-26 18:25 24.95489 67.13312 5888 ft 263 kts 52°
2026-04-26 18:25 24.96537 67.14974 6534 ft 265 kts 55°
2026-04-26 18:25 24.97567 67.16663 6823 ft 267 kts 55°
2026-04-26 18:26 24.98635 67.18372 6804 ft 272 kts 54°
2026-04-26 18:26 24.99723 67.20063 6811 ft 269 kts 53°
2026-04-26 18:26 25.00826 67.21738 6847 ft 274 kts 53°
2026-04-26 18:26 25.01986 67.23472 7196 ft 300 kts 52°
2026-04-26 18:27 25.03284 67.25391 7787 ft 320 kts 52°
2026-04-26 18:27 25.04632 67.27373 8838 ft 324 kts 52°
2026-04-26 18:27 25.05986 67.29357 9995 ft 325 kts 52°
2026-04-26 18:27 25.07355 67.31357 10977 ft 329 kts 52°
2026-04-26 18:28 25.08748 67.33393 11921 ft 335 kts 53°
2026-04-26 18:28 25.10168 67.35460 12905 ft 339 kts 51°
2026-04-26 18:28 25.11797 67.37362 13759 ft 345 kts 41°
2026-04-26 18:28 25.13662 67.39066 14590 ft 351 kts 38°
2026-04-26 18:29 25.15596 67.40744 15506 ft 355 kts 38°
2026-04-26 18:29 25.17533 67.42453 16163 ft 370 kts 39°
2026-04-26 18:29 25.19574 67.44308 16595 ft 389 kts 39°
2026-04-26 18:29 25.21703 67.46276 16952 ft 409 kts 40°
2026-04-26 18:30 25.23933 67.48346 17273 ft 428 kts 39°
2026-04-26 18:30 25.26275 67.50495 17544 ft 446 kts 39°
2026-04-26 18:30 25.28715 67.52720 17782 ft 463 kts 39°
2026-04-26 18:30 25.31238 67.54981 18167 ft 461 kts 38°
2026-04-26 18:31 25.33702 67.57130 18412 ft 445 kts 38°
2026-04-26 18:31 25.36121 67.59215 18444 ft 438 kts 37°
2026-04-26 18:31 25.38544 67.61298 18588 ft 456 kts 37°
2026-04-26 18:31 25.41085 67.63486 18981 ft 465 kts 38°
2026-04-26 18:32 25.43616 67.65675 19963 ft 458 kts 38°
2026-04-26 18:32 25.46106 67.67835 21057 ft 451 kts 38°
2026-04-26 18:32 25.48558 67.69967 22113 ft 446 kts 38°
2026-04-26 18:32 25.50994 67.72089 23110 ft 444 kts 38°
2026-04-26 18:33 25.53414 67.74200 23932 ft 443 kts 38°
2026-04-26 18:33 25.55865 67.76337 24311 ft 456 kts 38°
2026-04-26 18:33 25.58368 67.78522 24411 ft 473 kts 38°
2026-04-26 18:33 25.60991 67.80812 24649 ft 484 kts 38°
2026-04-26 18:34 25.63638 67.83124 25307 ft 484 kts 38°
2026-04-26 18:34 25.66268 67.85424 26115 ft 480 kts 38°
2026-04-26 18:34 25.68875 67.87705 27017 ft 475 kts 38°
2026-04-26 18:34 25.71460 67.89969 27942 ft 471 kts 37°
2026-04-26 18:35 25.73962 67.92289 28814 ft 468 kts 43°
2026-04-26 18:35 25.76240 67.94860 29677 ft 466 kts 46°
2026-04-26 18:35 25.78412 67.97524 30452 ft 464 kts 47°
2026-04-26 18:35 25.80501 68.00170 31217 ft 460 kts 48°
2026-04-26 18:36 25.82586 68.02852 31963 ft 457 kts 48°
2026-04-26 18:36 25.84650 68.05528 32666 ft 455 kts 48°
2026-04-26 18:36 25.86698 68.08204 33356 ft 454 kts 48°
2026-04-26 18:36 25.88732 68.10880 33852 ft 456 kts 48°
2026-04-26 18:37 25.90801 68.13614 33909 ft 468 kts 48°
2026-04-26 18:37 25.92917 68.16417 33990 ft 479 kts 48°
2026-04-26 18:37 25.97272 68.22199 34214 ft 495 kts 48°
2026-04-26 18:38 25.99448 68.25095 34623 ft 494 kts 48°
2026-04-26 18:38 26.01646 68.28025 35099 ft 492 kts 48°
2026-04-26 18:38 26.03835 68.30946 35527 ft 492 kts 48°
2026-04-26 18:38 26.06023 68.33866 35921 ft 491 kts 47°
2026-04-26 18:39 26.08377 68.36615 36243 ft 491 kts 40°
2026-04-26 18:39 26.11007 68.39047 36436 ft 492 kts 33°
2026-04-26 18:39 26.13838 68.41207 36639 ft 495 kts 32°
2026-04-26 18:39 26.16705 68.43347 36906 ft 496 kts 31°
2026-04-26 18:40 26.19532 68.45456 37281 ft 495 kts 32°
2026-04-26 18:40 26.22381 68.47597 37671 ft 494 kts 32°
2026-04-26 18:40 26.25225 68.49750 38007 ft 494 kts 32°
2026-04-26 18:40 26.28064 68.51914 38309 ft 494 kts 32°
2026-04-26 18:41 26.30899 68.54084 38560 ft 495 kts 32°
2026-04-26 18:41 26.33746 68.56267 38625 ft 499 kts 32°
2026-04-26 18:41 26.39477 68.60670 38692 ft 500 kts 32°
2026-04-26 18:42 26.44220 68.64319 38685 ft 496 kts 32°
2026-04-26 18:42 26.50799 68.69381 38695 ft 493 kts 32°
2026-04-26 18:43 26.56439 68.73725 38692 ft 492 kts 32°
2026-04-26 18:43 26.62072 68.78068 38696 ft 492 kts 32°
2026-04-26 18:44 26.66762 68.81688 38695 ft 493 kts 32°
2026-04-26 18:44 26.73335 68.86769 38696 ft 495 kts 32°
2026-04-26 18:45 26.78052 68.90420 38690 ft 496 kts 32°
2026-04-26 18:45 26.83730 68.94820 38686 ft 497 kts 32°
2026-04-26 18:46 26.90332 68.99943 38689 ft 496 kts 32°
2026-04-26 18:46 26.95077 69.03630 38685 ft 495 kts 32°
2026-04-26 18:47 27.00695 69.07999 38685 ft 494 kts 32°
2026-04-26 18:47 27.06334 69.12391 38685 ft 493 kts 32°
2026-04-26 18:48 27.11967 69.16783 38689 ft 493 kts 32°
2026-04-26 18:48 27.17594 69.21176 38687 ft 493 kts 32°
2026-04-26 18:49 27.23228 69.25580 38688 ft 493 kts 32°
2026-04-26 18:49 27.28767 69.30051 38676 ft 495 kts 35°
2026-04-26 18:50 27.34174 69.34846 38688 ft 496 kts 36°
2026-04-26 18:50 27.39564 69.39706 38686 ft 497 kts 36°
2026-04-26 18:51 27.44965 69.44552 38691 ft 497 kts 36°
2026-04-26 18:51 27.50352 69.49364 38679 ft 498 kts 36°
2026-04-26 18:52 27.55777 69.54209 38683 ft 498 kts 36°
2026-04-26 18:52 27.61206 69.59065 38680 ft 498 kts 36°
2026-04-26 18:53 27.66638 69.63933 38681 ft 499 kts 36°
2026-04-26 18:53 27.72067 69.68804 38685 ft 499 kts 36°
2026-04-26 18:54 27.77460 69.73649 38680 ft 499 kts 36°
2026-04-26 18:54 27.82892 69.78536 38683 ft 499 kts 36°
2026-04-26 18:55 27.88321 69.83426 38683 ft 499 kts 36°
2026-04-26 18:55 27.93749 69.88322 38682 ft 499 kts 36°
2026-04-26 18:56 27.99179 69.93227 38680 ft 500 kts 36°
2026-04-26 18:56 28.04574 69.98106 38676 ft 500 kts 36°
2026-04-26 18:57 28.09126 70.02228 38674 ft 500 kts 36°
2026-04-26 18:57 28.15444 70.07956 38677 ft 501 kts 36°
2026-04-26 18:58 28.20883 70.12896 38680 ft 501 kts 36°
2026-04-26 18:58 28.26290 70.17812 38678 ft 502 kts 36°
2026-04-26 18:59 28.31737 70.22773 38680 ft 502 kts 36°
2026-04-26 18:59 28.37129 70.27823 38683 ft 504 kts 40°
2026-04-26 19:00 28.41998 70.33583 38681 ft 506 kts 45°
2026-04-26 19:00 28.46739 70.39500 38678 ft 507 kts 45°
2026-04-26 19:01 28.51468 70.45374 38675 ft 507 kts 44°
2026-04-26 19:01 28.56248 70.51260 38681 ft 507 kts 44°
2026-04-26 19:02 28.61037 70.57145 38685 ft 507 kts 44°
2026-04-26 19:02 28.65017 70.62042 38684 ft 507 kts 44°
2026-04-26 19:03 28.70573 70.68892 38680 ft 507 kts 44°
2026-04-26 19:03 28.75353 70.74798 38682 ft 507 kts 44°
2026-04-26 19:04 28.80130 70.80707 38679 ft 506 kts 44°
2026-04-26 19:04 28.84898 70.86614 38677 ft 506 kts 44°
2026-04-26 19:05 28.89661 70.92524 38051 ft 506 kts 44°
2026-04-26 19:05 28.92012 70.95444 37253 ft 507 kts 44°
2026-04-26 19:05 28.94399 70.98410 36458 ft 508 kts 44°
2026-04-26 19:06 28.96788 71.01382 35738 ft 508 kts 44°
2026-04-26 19:06 28.99175 71.04353 35016 ft 507 kts 44°
2026-04-26 19:06 29.01556 71.07320 34339 ft 507 kts 44°
2026-04-26 19:06 29.03933 71.10284 33748 ft 504 kts 44°
2026-04-26 19:07 29.06289 71.13225 33187 ft 500 kts 44°
2026-04-26 19:07 29.08621 71.16138 32699 ft 493 kts 44°
2026-04-26 19:07 29.10922 71.19014 32247 ft 487 kts 44°
2026-04-26 19:07 29.13198 71.21860 31763 ft 482 kts 44°
2026-04-26 19:08 29.15454 71.24681 31257 ft 478 kts 44°
2026-04-26 19:08 29.17657 71.27439 30757 ft 474 kts 45°
2026-04-26 19:08 29.19873 71.30215 30273 ft 470 kts 45°
2026-04-26 19:08 29.22069 71.32968 29806 ft 466 kts 45°
2026-04-26 19:09 29.24246 71.35699 29254 ft 462 kts 45°
2026-04-26 19:09 29.26404 71.38408 28702 ft 458 kts 45°
2026-04-26 19:09 29.28543 71.41095 28149 ft 455 kts 45°
2026-04-26 19:09 29.30662 71.43767 27639 ft 452 kts 45°
2026-04-26 19:10 29.32750 71.46436 27112 ft 448 kts 46°
2026-04-26 19:10 29.34817 71.49096 26606 ft 445 kts 46°
2026-04-26 19:10 29.36866 71.51740 26111 ft 442 kts 46°
2026-04-26 19:10 29.38871 71.54329 25643 ft 439 kts 46°
2026-04-26 19:11 29.40892 71.56936 25181 ft 436 kts 46°
2026-04-26 19:11 29.42897 71.59522 24731 ft 433 kts 46°
2026-04-26 19:11 29.44889 71.62091 24292 ft 430 kts 46°
2026-04-26 19:11 29.46868 71.64644 23860 ft 427 kts 46°
2026-04-26 19:12 29.48833 71.67180 23447 ft 424 kts 46°
2026-04-26 19:12 29.50784 71.69700 22986 ft 421 kts 46°
2026-04-26 19:12 29.52722 71.72204 22498 ft 418 kts 46°
2026-04-26 19:12 29.54644 71.74690 22042 ft 415 kts 46°
2026-04-26 19:13 29.56554 71.77161 21591 ft 412 kts 46°
2026-04-26 19:13 29.58422 71.79579 21114 ft 409 kts 46°
2026-04-26 19:13 29.60302 71.82015 20678 ft 406 kts 46°
2026-04-26 19:13 29.62171 71.84438 20239 ft 403 kts 46°
2026-04-26 19:14 29.64024 71.86842 19793 ft 401 kts 46°
2026-04-26 19:14 29.65867 71.89233 19353 ft 398 kts 46°
2026-04-26 19:14 29.67695 71.91608 18936 ft 395 kts 46°
2026-04-26 19:14 29.68898 71.93171 18645 ft 393 kts 46°
2026-04-26 19:15 29.71313 71.96310 18086 ft 390 kts 46°
2026-04-26 19:15 29.73105 71.98642 17634 ft 387 kts 46°
2026-04-26 19:15 29.74856 72.00922 17184 ft 384 kts 46°
2026-04-26 19:15 29.76616 72.03216 16735 ft 380 kts 46°
2026-04-26 19:16 29.78359 72.05487 16297 ft 377 kts 46°
2026-04-26 19:16 29.80089 72.07744 15878 ft 374 kts 46°
2026-04-26 19:16 29.81790 72.09963 15704 ft 365 kts 46°
2026-04-26 19:16 29.83459 72.12142 15703 ft 363 kts 46°
2026-04-26 19:17 29.85132 72.14325 15697 ft 363 kts 46°
2026-04-26 19:17 29.86769 72.16526 15683 ft 361 kts 51°
2026-04-26 19:17 29.87916 72.19097 15694 ft 362 kts 69°
2026-04-26 19:17 29.88721 72.21864 15703 ft 367 kts 70°
2026-04-26 19:18 29.89514 72.24636 15704 ft 371 kts 70°
2026-04-26 19:18 29.90333 72.27473 15699 ft 374 kts 70°
2026-04-26 19:18 29.91159 72.30297 15689 ft 370 kts 70°
2026-04-26 19:18 29.91987 72.33093 15685 ft 366 kts 69°
2026-04-26 19:19 29.92803 72.35835 15623 ft 352 kts 69°
2026-04-26 19:19 29.93574 72.38419 15282 ft 331 kts 69°
2026-04-26 19:19 29.94312 72.40886 14655 ft 321 kts 69°
2026-04-26 19:19 29.95035 72.43298 13922 ft 316 kts 68°
2026-04-26 19:20 29.95742 72.45655 13098 ft 314 kts 68°
2026-04-26 19:20 29.96223 72.47261 12545 ft 312 kts 68°
2026-04-26 19:20 29.97156 72.50377 11470 ft 308 kts 68°
2026-04-26 19:20 29.97852 72.52705 10694 ft 305 kts 68°
2026-04-26 19:21 29.98539 72.55007 9940 ft 302 kts 68°
2026-04-26 19:21 29.99219 72.57286 9167 ft 299 kts 69°
2026-04-26 19:21 29.99892 72.59542 8392 ft 295 kts 69°
2026-04-26 19:21 30.00565 72.61797 8056 ft 303 kts 69°
2026-04-26 19:22 30.01377 72.64025 7882 ft 298 kts 54°
2026-04-26 19:22 30.02676 72.65831 7719 ft 289 kts 44°
2026-04-26 19:22 30.04006 72.67492 7706 ft 284 kts 44°
2026-04-26 19:22 30.05339 72.69162 7705 ft 282 kts 44°
2026-04-26 19:23 30.06662 72.70834 7702 ft 282 kts 45°
2026-04-26 19:23 30.07985 72.72517 7707 ft 283 kts 45°
2026-04-26 19:23 30.09305 72.74205 7707 ft 284 kts 45°
2026-04-26 19:23 30.10628 72.75904 7708 ft 284 kts 45°
2026-04-26 19:24 30.11949 72.77604 7705 ft 285 kts 45°
2026-04-26 19:24 30.13270 72.79308 7703 ft 285 kts 45°
2026-04-26 19:24 30.15889 72.82691 7706 ft 284 kts 45°
2026-04-26 19:25 30.17207 72.84395 7705 ft 284 kts 45°
2026-04-26 19:25 30.18075 72.85517 7705 ft 283 kts 45°
2026-04-26 19:25 30.19832 72.87790 7708 ft 283 kts 45°
2026-04-26 19:25 30.21142 72.89488 7707 ft 283 kts 45°
2026-04-26 19:26 30.22449 72.91184 7708 ft 282 kts 45°
2026-04-26 19:26 30.23755 72.92880 7708 ft 282 kts 45°
2026-04-26 19:26 30.25059 72.94575 7705 ft 282 kts 45°
2026-04-26 19:26 30.26346 72.96247 7706 ft 282 kts 45°
2026-04-26 19:27 30.27650 72.97943 7709 ft 282 kts 45°
2026-04-26 19:27 30.28953 72.99638 7708 ft 282 kts 45°
2026-04-26 19:27 30.30257 73.01337 7709 ft 282 kts 45°
2026-04-26 19:27 30.31561 73.03035 7710 ft 282 kts 45°
2026-04-26 19:28 30.32878 73.04749 7788 ft 291 kts 45°
2026-04-26 19:28 30.34266 73.06554 8499 ft 306 kts 45°
2026-04-26 19:28 30.35703 73.08424 9486 ft 315 kts 44°
2026-04-26 19:28 30.37169 73.10336 10498 ft 319 kts 44°
2026-04-26 19:29 30.38651 73.12273 11549 ft 323 kts 44°
2026-04-26 19:29 30.40133 73.14209 12545 ft 328 kts 44°
2026-04-26 19:29 30.41661 73.16205 13547 ft 334 kts 44°
2026-04-26 19:29 30.43212 73.18232 14449 ft 340 kts 44°
2026-04-26 19:30 30.44803 73.20312 15216 ft 353 kts 45°
2026-04-26 19:30 30.46473 73.22492 15813 ft 369 kts 45°
2026-04-26 19:30 30.48198 73.24750 16617 ft 379 kts 45°
2026-04-26 19:30 30.49358 73.26272 17156 ft 382 kts 46°
2026-04-26 19:31 30.51732 73.29388 17735 ft 389 kts 46°
2026-04-26 19:31 30.53506 73.31720 17716 ft 391 kts 46°
2026-04-26 19:31 30.55302 73.34082 17718 ft 389 kts 46°
2026-04-26 19:31 30.57087 73.36431 17713 ft 386 kts 46°
2026-04-26 19:32 30.58860 73.38763 17715 ft 385 kts 46°
2026-04-26 19:32 30.60631 73.41093 17715 ft 385 kts 46°
2026-04-26 19:32 30.62401 73.43422 17718 ft 384 kts 46°
2026-04-26 19:32 30.64167 73.45747 17716 ft 384 kts 46°
2026-04-26 19:33 30.65936 73.48077 17715 ft 384 kts 46°
2026-04-26 19:33 30.67680 73.50377 17717 ft 385 kts 46°
2026-04-26 19:33 30.69449 73.52710 17719 ft 385 kts 46°
2026-04-26 19:33 30.71218 73.55045 17717 ft 385 kts 46°
2026-04-26 19:34 30.72989 73.57384 17715 ft 386 kts 46°
2026-04-26 19:34 30.74763 73.59728 17712 ft 386 kts 46°
2026-04-26 19:34 30.76508 73.62038 17627 ft 368 kts 46°
2026-04-26 19:34 30.78136 73.64199 17361 ft 343 kts 46°
2026-04-26 19:35 30.79662 73.66221 16947 ft 323 kts 45°
2026-04-26 19:35 30.81117 73.68148 16365 ft 312 kts 45°
2026-04-26 19:35 30.82517 73.69999 15661 ft 306 kts 45°
2026-04-26 19:35 30.83914 73.71849 14942 ft 303 kts 45°
2026-04-26 19:36 30.85298 73.73684 14209 ft 300 kts 44°
2026-04-26 19:36 30.86207 73.74889 13748 ft 298 kts 44°
2026-04-26 19:36 30.88017 73.77291 12756 ft 293 kts 44°
2026-04-26 19:36 30.89349 73.79061 12018 ft 289 kts 44°
2026-04-26 19:37 30.90664 73.80808 11297 ft 285 kts 44°
2026-04-26 19:37 30.91947 73.82514 10614 ft 282 kts 44°
2026-04-26 19:37 30.93228 73.84218 9925 ft 278 kts 43°
2026-04-26 19:37 30.94495 73.85903 9214 ft 275 kts 44°
2026-04-26 19:38 30.95748 73.87569 8468 ft 272 kts 44°
2026-04-26 19:38 30.96983 73.89213 7833 ft 266 kts 45°
2026-04-26 19:38 30.98172 73.90799 7567 ft 259 kts 45°
2026-04-26 19:38 30.99382 73.92407 7538 ft 268 kts 45°
2026-04-26 19:39 31.00612 73.94045 7536 ft 267 kts 45°
2026-04-26 19:39 31.01822 73.95659 7494 ft 262 kts 45°
2026-04-26 19:39 31.03012 73.97250 7441 ft 259 kts 45°
2026-04-26 19:39 31.04176 73.98803 7352 ft 257 kts 45°
2026-04-26 19:40 31.05351 74.00372 7284 ft 256 kts 45°
2026-04-26 19:40 31.06525 74.01940 7241 ft 257 kts 45°
2026-04-26 19:40 31.07703 74.03513 7213 ft 257 kts 46°
2026-04-26 19:40 31.08878 74.05085 7214 ft 257 kts 46°
2026-04-26 19:41 31.10051 74.06654 7208 ft 256 kts 46°
2026-04-26 19:41 31.11218 74.08218 7081 ft 252 kts 46°
2026-04-26 19:41 31.12354 74.09739 6768 ft 247 kts 46°
2026-04-26 19:41 31.13098 74.10735 6588 ft 245 kts 46°
2026-04-26 19:42 31.14568 74.12704 6163 ft 242 kts 46°
2026-04-26 19:42 31.15671 74.14182 5809 ft 241 kts 46°
2026-04-26 19:42 31.16768 74.15652 5467 ft 240 kts 46°
2026-04-26 19:42 31.17857 74.17113 5142 ft 237 kts 46°
2026-04-26 19:43 31.18938 74.18563 4810 ft 236 kts 46°
2026-04-26 19:43 31.20010 74.20001 4484 ft 234 kts 47°
2026-04-26 19:43 31.21075 74.21431 4146 ft 232 kts 46°
2026-04-26 19:43 31.22131 74.22850 3804 ft 231 kts 47°
2026-04-26 19:44 31.23166 74.24241 3479 ft 229 kts 46°
2026-04-26 19:44 31.24207 74.25640 3162 ft 228 kts 47°
2026-04-26 19:44 31.25240 74.27029 3012 ft 225 kts 47°
2026-04-26 19:44 31.26270 74.28414 3011 ft 227 kts 46°
2026-04-26 19:45 31.27308 74.29810 3013 ft 228 kts 47°
2026-04-26 19:45 31.28343 74.31204 3067 ft 225 kts 46°
2026-04-26 19:45 31.29357 74.32571 3026 ft 220 kts 47°
2026-04-26 19:45 31.30337 74.33891 2999 ft 209 kts 46°
2026-04-26 19:46 31.31246 74.35117 2989 ft 198 kts 46°
2026-04-26 19:46 31.32141 74.36323 3000 ft 195 kts 46°
2026-04-26 19:46 31.33030 74.37521 3001 ft 195 kts 46°
2026-04-26 19:46 31.33916 74.38715 3004 ft 195 kts 46°
2026-04-26 19:47 31.34960 74.39640 2997 ft 187 kts 15°
2026-04-26 19:47 31.35795 74.39828 3016 ft 186 kts
2026-04-26 19:47 31.37535 74.40093 3020 ft 187 kts
2026-04-26 19:47 31.38803 74.40213 2947 ft 181 kts
2026-04-26 19:48 31.40034 74.40252 2713 ft 177 kts 359°
2026-04-26 19:48 31.41256 74.40273 2491 ft 175 kts 360°
2026-04-26 19:48 31.42470 74.40294 2277 ft 174 kts 359°
2026-04-26 19:48 31.43683 74.40314 2058 ft 174 kts
2026-04-26 19:49 31.44891 74.40336 1841 ft 171 kts
2026-04-26 19:49 31.46050 74.40357 1624 ft 162 kts
2026-04-26 19:49 31.47177 74.40380 1421 ft 163 kts 360°
2026-04-26 19:49 31.48319 74.40367 1215 ft 166 kts 358°
2026-04-26 19:50 31.49427 74.40397 961 ft 157 kts
2026-04-26 19:50 31.50504 74.40429 800 ft 153 kts 359°
2026-04-26 19:50 31.51500 74.40445 724 ft 95 kts
2026-04-26 19:50 31.51676 74.40450 723 ft 10 kts
2026-04-26 19:51 31.51844 74.40453 725 ft 35 kts
2026-04-26 19:51 31.52141 74.40458 725 ft 46 kts
2026-04-26 19:51 31.52473 74.40464 724 ft 46 kts
2026-04-26 19:51 31.52707 74.40473 725 ft 22 kts
2026-04-26 19:52 31.52805 74.40546 727 ft 17 kts 77°
2026-04-26 19:52 31.52802 74.40618 724 ft 0 kts 102°
2026-04-26 19:53 31.52786 74.40656 727 ft 9 kts 134°
2026-04-26 19:53 31.52706 74.40676 727 ft 13 kts 180°
2026-04-26 19:53 31.52579 74.40674 727 ft 23 kts 180°
2026-04-26 19:53 31.52484 74.40674 725 ft 14 kts 177°
2026-04-26 19:54 31.52411 74.40761 724 ft 12 kts 100°
2026-04-26 19:54 31.52332 74.40844 724 ft 20 kts 173°
2026-04-26 19:54 31.52231 74.40845 724 ft 0 kts 181°
2026-04-26 19:55 31.52209 74.40845 724 ft 9 kts 181°
2026-04-26 19:56 31.52173 74.40790 726 ft 0 kts 265°
2026-04-26 19:56 31.52171 74.40763 724 ft 0 kts 270°
2026-04-26 19:57 31.52171 74.40768 725 ft 4 kts 271°
2026-04-26 19:57 31.52171 74.40777 726 ft 0 kts 278°
2026-04-26 19:57 31.52171 74.40773 726 ft 2 kts 271°
2026-04-26 19:58 31.52171 74.40769 726 ft 0 kts 271°